AAR361 RKSI-ZSPD

Flight info

Callsign AAR361
Flight time 1h 31m
Altitude 40000
Route BOPTA3C BOPTA Z51 BEDES Y711 PONIK A593 LAMEN/K0900F400 A593 DUMET DUM82A
Aircraft A359/H-SDE2E3GHIJ3J4J5LM1ORWXY/LB1D1

Departure

Time 2026-05-06 18:34
Airport Incheon International Airport (RKSI)

Arrival

Time 2026-05-06 20:06
Airport Shanghai Pudong International Airport (ZSPD)
Time Latitude Longitude Altitude Speed Heading
2026-05-06 17:58 37.46810 126.44059 38 ft 0 kts 221°
2026-05-06 18:25 37.46814 126.44063 38 ft 2 kts 220°
2026-05-06 18:25 37.46823 126.44073 37 ft 2 kts 219°
2026-05-06 18:25 37.46832 126.44082 37 ft 2 kts 217°
2026-05-06 18:26 37.46842 126.44090 37 ft 2 kts 217°
2026-05-06 18:26 37.46850 126.44099 36 ft 2 kts 217°
2026-05-06 18:26 37.46860 126.44107 37 ft 2 kts 229°
2026-05-06 18:26 37.46868 126.44120 37 ft 4 kts 257°
2026-05-06 18:27 37.46866 126.44153 34 ft 4 kts 290°
2026-05-06 18:27 37.46855 126.44185 35 ft 3 kts 311°
2026-05-06 18:27 37.46855 126.44186 35 ft 0 kts 311°
2026-05-06 18:28 37.46860 126.44179 34 ft 3 kts 311°
2026-05-06 18:28 37.46889 126.44133 38 ft 10 kts 307°
2026-05-06 18:29 37.46954 126.44053 38 ft 16 kts 314°
2026-05-06 18:29 37.47041 126.43945 38 ft 19 kts 317°
2026-05-06 18:29 37.47146 126.43843 36 ft 15 kts 324°
2026-05-06 18:29 37.47241 126.43764 38 ft 18 kts 327°
2026-05-06 18:30 37.47342 126.43687 38 ft 1 kts 329°
2026-05-06 18:30 37.47365 126.43681 38 ft 9 kts 357°
2026-05-06 18:30 37.47439 126.43744 38 ft 16 kts 47°
2026-05-06 18:31 37.47502 126.43814 38 ft 6 kts 352°
2026-05-06 18:31 37.47556 126.43768 38 ft 15 kts 325°
2026-05-06 18:31 37.47648 126.43685 38 ft 18 kts 324°
2026-05-06 18:31 37.47758 126.43587 38 ft 21 kts 324°
2026-05-06 18:32 37.47881 126.43476 38 ft 22 kts 325°
2026-05-06 18:32 37.47965 126.43404 38 ft 5 kts 331°
2026-05-06 18:32 37.48019 126.43410 38 ft 11 kts 36°
2026-05-06 18:32 37.48084 126.43512 38 ft 19 kts 53°
2026-05-06 18:33 37.48132 126.43597 38 ft 2 kts 56°
2026-05-06 18:33 37.48140 126.43642 38 ft 8 kts 95°
2026-05-06 18:33 37.48087 126.43713 38 ft 15 kts 144°
2026-05-06 18:33 37.47984 126.43806 38 ft 28 kts 144°
2026-05-06 18:34 37.47856 126.43920 39 ft 59 kts 145°
2026-05-06 18:34 37.47477 126.44257 39 ft 109 kts 145°
2026-05-06 18:34 37.46686 126.44961 150 ft 161 kts 146°
2026-05-06 18:34 37.45855 126.45850 1039 ft 152 kts 132°
2026-05-06 18:35 37.45227 126.46982 1560 ft 171 kts 132°
2026-05-06 18:35 37.44461 126.48296 1908 ft 197 kts 135°
2026-05-06 18:35 37.43543 126.49696 2240 ft 225 kts 137°
2026-05-06 18:35 37.42454 126.51252 2710 ft 246 kts 137°
2026-05-06 18:36 37.41284 126.52883 3448 ft 255 kts 137°
2026-05-06 18:36 37.40074 126.54552 4194 ft 263 kts 137°
2026-05-06 18:36 37.38814 126.56273 4763 ft 272 kts 137°
2026-05-06 18:36 37.37478 126.57972 5044 ft 274 kts 145°
2026-05-06 18:37 37.35822 126.59105 5688 ft 272 kts 163°
2026-05-06 18:37 37.34035 126.59906 6568 ft 275 kts 165°
2026-05-06 18:37 37.32211 126.60688 7385 ft 279 kts 165°
2026-05-06 18:37 37.30357 126.61483 8282 ft 283 kts 165°
2026-05-06 18:38 37.28486 126.62288 9196 ft 286 kts 165°
2026-05-06 18:38 37.26548 126.62827 10059 ft 285 kts 180°
2026-05-06 18:38 37.24526 126.62878 10595 ft 300 kts 185°
2026-05-06 18:38 37.22369 126.62807 10962 ft 320 kts 186°
2026-05-06 18:39 37.20072 126.62727 11348 ft 340 kts 185°
2026-05-06 18:39 37.17666 126.62658 11882 ft 351 kts 185°
2026-05-06 18:39 37.15200 126.62596 12572 ft 357 kts 185°
2026-05-06 18:40 37.10161 126.62484 13986 ft 367 kts 185°
2026-05-06 18:40 37.07598 126.62455 14643 ft 370 kts 185°
2026-05-06 18:40 37.05018 126.62429 15335 ft 372 kts 185°
2026-05-06 18:40 37.02423 126.62400 16032 ft 374 kts 185°
2026-05-06 18:41 36.99813 126.62370 16735 ft 376 kts 186°
2026-05-06 18:41 36.97187 126.62345 17433 ft 379 kts 186°
2026-05-06 18:41 36.94541 126.62373 18130 ft 382 kts 185°
2026-05-06 18:41 36.91874 126.62413 18748 ft 385 kts 185°
2026-05-06 18:42 36.89193 126.62452 19319 ft 388 kts 186°
2026-05-06 18:42 36.86515 126.62451 19879 ft 390 kts 188°
2026-05-06 18:42 36.83765 126.62287 20469 ft 392 kts 189°
2026-05-06 18:42 36.81065 126.62099 21034 ft 396 kts 189°
2026-05-06 18:43 36.78301 126.61919 21602 ft 399 kts 189°
2026-05-06 18:43 36.75514 126.61770 22161 ft 405 kts 187°
2026-05-06 18:43 36.72669 126.62004 22739 ft 416 kts 178°
2026-05-06 18:43 36.69796 126.62708 23316 ft 424 kts 174°
2026-05-06 18:44 36.66919 126.63610 23835 ft 430 kts 172°
2026-05-06 18:44 36.64017 126.64616 24318 ft 435 kts 171°
2026-05-06 18:44 36.61092 126.65660 24816 ft 439 kts 171°
2026-05-06 18:44 36.58142 126.66706 25300 ft 443 kts 171°
2026-05-06 18:45 36.55155 126.67746 25815 ft 447 kts 171°
2026-05-06 18:45 36.52150 126.68775 26316 ft 450 kts 172°
2026-05-06 18:45 36.49110 126.69800 26811 ft 454 kts 172°
2026-05-06 18:45 36.46047 126.70826 27282 ft 458 kts 172°
2026-05-06 18:46 36.42959 126.71856 27783 ft 462 kts 172°
2026-05-06 18:46 36.39839 126.72895 28235 ft 466 kts 172°
2026-05-06 18:46 36.36696 126.73948 28749 ft 469 kts 172°
2026-05-06 18:46 36.33538 126.75016 29206 ft 473 kts 172°
2026-05-06 18:47 36.30356 126.76090 29686 ft 476 kts 172°
2026-05-06 18:47 36.27145 126.77171 30108 ft 480 kts 172°
2026-05-06 18:47 36.23918 126.78257 30454 ft 483 kts 172°
2026-05-06 18:47 36.20658 126.79354 30833 ft 486 kts 172°
2026-05-06 18:48 36.17383 126.80346 31175 ft 484 kts 176°
2026-05-06 18:48 36.14059 126.80816 31574 ft 477 kts 185°
2026-05-06 18:48 36.10804 126.80743 31954 ft 474 kts 189°
2026-05-06 18:48 36.07507 126.80481 32295 ft 475 kts 191°
2026-05-06 18:49 36.04210 126.80135 32649 ft 476 kts 192°
2026-05-06 18:49 36.00906 126.79754 32960 ft 478 kts 192°
2026-05-06 18:49 35.97589 126.79364 33298 ft 479 kts 192°
2026-05-06 18:49 35.94284 126.78984 33875 ft 475 kts 191°
2026-05-06 18:50 35.91008 126.78619 34398 ft 471 kts 191°
2026-05-06 18:50 35.87748 126.78264 34754 ft 471 kts 191°
2026-05-06 18:50 35.84484 126.77909 35086 ft 471 kts 191°
2026-05-06 18:50 35.81215 126.77552 35413 ft 471 kts 191°
2026-05-06 18:51 35.77957 126.77197 35741 ft 471 kts 191°
2026-05-06 18:51 35.74692 126.76842 36103 ft 470 kts 191°
2026-05-06 18:51 35.71438 126.76490 36444 ft 470 kts 192°
2026-05-06 18:51 35.68184 126.76138 36754 ft 470 kts 192°
2026-05-06 18:52 35.64927 126.75787 37063 ft 469 kts 192°
2026-05-06 18:52 35.61676 126.75437 37366 ft 469 kts 192°
2026-05-06 18:52 35.58426 126.75087 37661 ft 469 kts 191°
2026-05-06 18:52 35.55177 126.74738 38021 ft 467 kts 191°
2026-05-06 18:53 35.51947 126.74394 38356 ft 466 kts 192°
2026-05-06 18:53 35.48719 126.74049 38648 ft 465 kts 192°
2026-05-06 18:53 35.45492 126.73701 38885 ft 465 kts 192°
2026-05-06 18:53 35.42267 126.73355 39095 ft 466 kts 192°
2026-05-06 18:54 35.39044 126.73009 39292 ft 466 kts 192°
2026-05-06 18:54 35.35824 126.72665 39579 ft 463 kts 192°
2026-05-06 18:54 35.32646 126.72326 39792 ft 463 kts 192°
2026-05-06 18:54 35.29436 126.71983 39942 ft 464 kts 192°
2026-05-06 18:55 35.26209 126.71636 40029 ft 466 kts 192°
2026-05-06 18:55 35.19761 126.70948 40015 ft 465 kts 192°
2026-05-06 18:56 35.13314 126.70264 40037 ft 465 kts 191°
2026-05-06 18:56 35.06870 126.69589 40036 ft 464 kts 191°
2026-05-06 18:57 35.00431 126.68902 40036 ft 464 kts 191°
2026-05-06 18:57 34.93993 126.68215 40037 ft 464 kts 191°
2026-05-06 18:58 34.87554 126.67533 40038 ft 464 kts 191°
2026-05-06 18:58 34.81112 126.66852 40035 ft 464 kts 191°
2026-05-06 18:59 34.74663 126.66172 40038 ft 466 kts 191°
2026-05-06 18:59 34.68196 126.65491 40036 ft 467 kts 191°
2026-05-06 19:00 34.61725 126.64810 40032 ft 467 kts 191°
2026-05-06 19:00 34.55245 126.64130 40034 ft 469 kts 191°
2026-05-06 19:01 34.48775 126.63451 40032 ft 470 kts 191°
2026-05-06 19:01 34.42255 126.62771 40031 ft 471 kts 191°
2026-05-06 19:02 34.35727 126.62094 40030 ft 471 kts 191°
2026-05-06 19:02 34.29185 126.61410 40031 ft 472 kts 191°
2026-05-06 19:03 34.22648 126.60734 40032 ft 472 kts 191°
2026-05-06 19:03 34.16100 126.60052 40030 ft 473 kts 191°
2026-05-06 19:04 34.09539 126.59362 40030 ft 473 kts 191°
2026-05-06 19:04 34.02966 126.58676 40033 ft 474 kts 191°
2026-05-06 19:05 33.97510 126.58109 40022 ft 474 kts 191°
2026-05-06 19:05 33.90931 126.57427 40021 ft 474 kts 191°
2026-05-06 19:06 33.83370 126.56202 40023 ft 466 kts 200°
2026-05-06 19:06 33.78280 126.54243 40015 ft 463 kts 204°
2026-05-06 19:07 33.72212 126.51623 40019 ft 464 kts 205°
2026-05-06 19:07 33.66155 126.48957 40017 ft 463 kts 205°
2026-05-06 19:08 33.60106 126.46319 40019 ft 462 kts 205°
2026-05-06 19:08 33.54042 126.43694 40019 ft 463 kts 205°
2026-05-06 19:09 33.47977 126.41080 40017 ft 464 kts 205°
2026-05-06 19:09 33.41934 126.38484 40005 ft 464 kts 204°
2026-05-06 19:10 33.35849 126.35875 40016 ft 465 kts 205°
2026-05-06 19:10 33.29763 126.33256 40015 ft 465 kts 205°
2026-05-06 19:11 33.23677 126.30643 40001 ft 465 kts 205°
2026-05-06 19:11 33.17577 126.28031 40017 ft 466 kts 205°
2026-05-06 19:12 33.11477 126.25424 40020 ft 466 kts 205°
2026-05-06 19:12 33.05385 126.22825 40018 ft 465 kts 205°
2026-05-06 19:13 32.99285 126.20229 40018 ft 465 kts 204°
2026-05-06 19:13 32.93203 126.17632 40020 ft 465 kts 205°
2026-05-06 19:14 32.87112 126.15006 40020 ft 464 kts 205°
2026-05-06 19:14 32.81033 126.12392 40020 ft 465 kts 205°
2026-05-06 19:15 32.74939 126.09784 40020 ft 466 kts 205°
2026-05-06 19:15 32.68837 126.07178 40017 ft 466 kts 205°
2026-05-06 19:16 32.62731 126.04575 40017 ft 466 kts 205°
2026-05-06 19:16 32.56621 126.01972 40018 ft 467 kts 205°
2026-05-06 19:17 32.50510 125.99374 40018 ft 467 kts 205°
2026-05-06 19:17 32.44388 125.96782 40016 ft 468 kts 205°
2026-05-06 19:18 32.38249 125.94181 40019 ft 468 kts 205°
2026-05-06 19:18 32.32112 125.91583 40018 ft 468 kts 205°
2026-05-06 19:19 32.25975 125.88991 40014 ft 469 kts 205°
2026-05-06 19:19 32.19859 125.86411 40017 ft 470 kts 205°
2026-05-06 19:20 32.13703 125.83820 40017 ft 470 kts 205°
2026-05-06 19:20 32.07706 125.80859 40020 ft 463 kts 214°
2026-05-06 19:21 32.02681 125.76288 40012 ft 453 kts 231°
2026-05-06 19:21 31.99150 125.70252 40008 ft 445 kts 248°
2026-05-06 19:22 31.97179 125.63407 40020 ft 441 kts 256°
2026-05-06 19:22 31.95640 125.56404 40023 ft 441 kts 257°
2026-05-06 19:23 31.94133 125.49397 40017 ft 442 kts 257°
2026-05-06 19:23 31.92591 125.42402 40016 ft 441 kts 257°
2026-05-06 19:24 31.91024 125.35412 40010 ft 441 kts 257°
2026-05-06 19:24 31.89449 125.28428 40016 ft 441 kts 257°
2026-05-06 19:25 31.87871 125.21447 40006 ft 441 kts 257°
2026-05-06 19:25 31.86292 125.14475 40016 ft 441 kts 257°
2026-05-06 19:26 31.84709 125.07504 40010 ft 441 kts 257°
2026-05-06 19:26 31.83121 125.00528 40010 ft 441 kts 257°
2026-05-06 19:27 31.81570 124.93556 40012 ft 440 kts 257°
2026-05-06 19:27 31.80078 124.86577 40007 ft 440 kts 258°
2026-05-06 19:28 31.78583 124.79611 40004 ft 440 kts 257°
2026-05-06 19:28 31.77070 124.72638 40003 ft 440 kts 257°
2026-05-06 19:29 31.75552 124.65682 40003 ft 439 kts 257°
2026-05-06 19:29 31.74035 124.58762 39997 ft 430 kts 257°
2026-05-06 19:30 31.72539 124.51954 40003 ft 431 kts 257°
2026-05-06 19:30 31.71039 124.45133 40000 ft 432 kts 257°
2026-05-06 19:31 31.69543 124.38355 40002 ft 431 kts 257°
2026-05-06 19:31 31.67265 124.28067 39981 ft 436 kts 257°
2026-05-06 19:32 31.65739 124.21195 40009 ft 439 kts 257°
2026-05-06 19:32 31.64197 124.14281 40002 ft 438 kts 257°
2026-05-06 19:33 31.62653 124.07372 39999 ft 437 kts 257°
2026-05-06 19:33 31.61109 124.00484 39990 ft 437 kts 257°
2026-05-06 19:34 31.59585 123.93579 39998 ft 437 kts 257°
2026-05-06 19:34 31.58085 123.86683 39981 ft 437 kts 257°
2026-05-06 19:35 31.57332 123.83227 39752 ft 436 kts 257°
2026-05-06 19:35 31.56581 123.79795 39417 ft 432 kts 257°
2026-05-06 19:35 31.55835 123.76398 38893 ft 430 kts 256°
2026-05-06 19:35 31.55089 123.73002 38146 ft 432 kts 256°
2026-05-06 19:36 31.54337 123.69591 37460 ft 432 kts 256°
2026-05-06 19:36 31.53585 123.66184 36772 ft 432 kts 256°
2026-05-06 19:36 31.52832 123.62775 36075 ft 433 kts 256°
2026-05-06 19:36 31.52075 123.59356 35349 ft 434 kts 256°
2026-05-06 19:37 31.51314 123.55922 34576 ft 437 kts 256°
2026-05-06 19:37 31.50547 123.52463 33705 ft 441 kts 255°
2026-05-06 19:37 31.49772 123.48964 32793 ft 445 kts 256°
2026-05-06 19:37 31.49300 123.46624 32194 ft 446 kts 257°
2026-05-06 19:38 31.48415 123.41847 30972 ft 451 kts 258°
2026-05-06 19:38 31.47748 123.38242 29982 ft 455 kts 258°
2026-05-06 19:38 31.47068 123.34607 28877 ft 458 kts 258°
2026-05-06 19:38 31.46384 123.30981 28164 ft 454 kts 257°
2026-05-06 19:39 31.45703 123.27392 27459 ft 449 kts 257°
2026-05-06 19:39 31.45027 123.23842 26757 ft 445 kts 257°
2026-05-06 19:39 31.44353 123.20313 26052 ft 442 kts 257°
2026-05-06 19:39 31.43684 123.16816 25334 ft 439 kts 257°
2026-05-06 19:40 31.43017 123.13335 24627 ft 436 kts 257°
2026-05-06 19:40 31.42354 123.09882 23925 ft 433 kts 257°
2026-05-06 19:40 31.41694 123.06452 23171 ft 431 kts 256°
2026-05-06 19:40 31.41038 123.03052 22428 ft 426 kts 256°
2026-05-06 19:41 31.40389 122.99689 21724 ft 421 kts 256°
2026-05-06 19:41 31.39748 122.96369 21036 ft 416 kts 256°
2026-05-06 19:41 31.39119 122.93123 20344 ft 412 kts 256°
2026-05-06 19:41 31.38488 122.89869 19633 ft 408 kts 256°
2026-05-06 19:42 31.37862 122.86641 18932 ft 405 kts 256°
2026-05-06 19:42 31.37240 122.83441 18219 ft 402 kts 256°
2026-05-06 19:42 31.36619 122.80257 17436 ft 399 kts 256°
2026-05-06 19:42 31.35823 122.77175 16734 ft 394 kts 247°
2026-05-06 19:43 31.34620 122.74311 16017 ft 390 kts 242°
2026-05-06 19:43 31.33323 122.71544 15313 ft 387 kts 242°
2026-05-06 19:43 31.32020 122.68795 14598 ft 385 kts 242°
2026-05-06 19:43 31.30728 122.66064 13880 ft 382 kts 242°
2026-05-06 19:44 31.29450 122.63356 13105 ft 380 kts 242°
2026-05-06 19:44 31.28181 122.60663 12371 ft 376 kts 242°
2026-05-06 19:44 31.26925 122.57998 11665 ft 373 kts 242°
2026-05-06 19:44 31.25662 122.55318 10954 ft 370 kts 242°
2026-05-06 19:45 31.24465 122.52780 10736 ft 353 kts 242°
2026-05-06 19:45 31.23307 122.50326 10606 ft 335 kts 242°
2026-05-06 19:45 31.22213 122.48010 10487 ft 318 kts 242°
2026-05-06 19:45 31.21197 122.45859 10360 ft 303 kts 242°
2026-05-06 19:46 31.20965 122.45366 10337 ft 299 kts 242°
2026-05-06 19:46 31.19987 122.43297 10213 ft 286 kts 243°
2026-05-06 19:46 31.19049 122.41311 10091 ft 274 kts 243°
2026-05-06 19:46 31.18140 122.39387 9958 ft 267 kts 242°
2026-05-06 19:47 31.17216 122.37430 9843 ft 281 kts 242°
2026-05-06 19:47 31.16265 122.35418 9674 ft 282 kts 243°
2026-05-06 19:47 31.15325 122.33434 9237 ft 280 kts 243°
2026-05-06 19:47 31.14386 122.31450 8805 ft 277 kts 242°
2026-05-06 19:48 31.13452 122.29479 8327 ft 277 kts 242°
2026-05-06 19:48 31.12528 122.27531 8022 ft 270 kts 242°
2026-05-06 19:48 31.11640 122.25661 7883 ft 257 kts 242°
2026-05-06 19:48 31.10791 122.23873 7697 ft 248 kts 241°
2026-05-06 19:49 31.09962 122.22128 7399 ft 245 kts 241°
2026-05-06 19:49 31.09146 122.20391 7101 ft 246 kts 242°
2026-05-06 19:49 31.08720 122.19157 6899 ft 248 kts 255°
2026-05-06 19:49 31.08514 122.16517 6797 ft 247 kts 267°
2026-05-06 19:50 31.08486 122.15190 6727 ft 248 kts 267°
2026-05-06 19:50 31.08446 122.13177 6634 ft 248 kts 267°
2026-05-06 19:50 31.08401 122.11162 6552 ft 249 kts 267°
2026-05-06 19:50 31.08354 122.09142 6452 ft 248 kts 266°
2026-05-06 19:51 31.08305 122.07148 6363 ft 245 kts 266°
2026-05-06 19:51 31.08254 122.05153 6263 ft 246 kts 266°
2026-05-06 19:51 31.08203 122.03159 6171 ft 246 kts 266°
2026-05-06 19:51 31.08153 122.01169 6080 ft 245 kts 266°
2026-05-06 19:52 31.08329 121.99192 5982 ft 248 kts 285°
2026-05-06 19:52 31.09219 121.97482 5902 ft 252 kts 314°
2026-05-06 19:52 31.10739 121.96446 5837 ft 257 kts 337°
2026-05-06 19:52 31.12443 121.95788 5751 ft 258 kts 340°
2026-05-06 19:53 31.14153 121.95182 5682 ft 258 kts 340°
2026-05-06 19:53 31.15862 121.94564 5615 ft 258 kts 340°
2026-05-06 19:53 31.17473 121.93972 5551 ft 257 kts 340°
2026-05-06 19:53 31.19265 121.93308 5479 ft 256 kts 340°
2026-05-06 19:54 31.20961 121.92677 5407 ft 255 kts 340°
2026-05-06 19:54 31.22647 121.92051 5329 ft 254 kts 339°
2026-05-06 19:54 31.24336 121.91415 5271 ft 255 kts 338°
2026-05-06 19:54 31.26019 121.90780 5199 ft 254 kts 338°
2026-05-06 19:55 31.27692 121.90145 5125 ft 253 kts 339°
2026-05-06 19:55 31.29364 121.89512 5058 ft 252 kts 340°
2026-05-06 19:55 31.31011 121.88896 4976 ft 251 kts 339°
2026-05-06 19:55 31.32629 121.88284 4920 ft 251 kts 340°
2026-05-06 19:56 31.34288 121.87658 4858 ft 250 kts 340°
2026-05-06 19:56 31.35946 121.87037 4770 ft 250 kts 339°
2026-05-06 19:56 31.37597 121.86415 4701 ft 248 kts 339°
2026-05-06 19:56 31.39237 121.85795 4620 ft 247 kts 338°
2026-05-06 19:57 31.40872 121.85176 4555 ft 247 kts 338°
2026-05-06 19:57 31.42486 121.84554 4464 ft 239 kts 336°
2026-05-06 19:57 31.43833 121.83577 4312 ft 221 kts 309°
2026-05-06 19:57 31.44491 121.82057 4223 ft 213 kts 279°
2026-05-06 19:58 31.44431 121.80300 4131 ft 215 kts 258°
2026-05-06 19:58 31.44108 121.78593 4024 ft 216 kts 256°
2026-05-06 19:58 31.43767 121.76891 3917 ft 210 kts 257°
2026-05-06 19:58 31.43450 121.75273 3814 ft 200 kts 257°
2026-05-06 19:59 31.43100 121.73736 3667 ft 191 kts 248°
2026-05-06 19:59 31.42256 121.72616 3519 ft 189 kts 205°
2026-05-06 19:59 31.40963 121.72427 3480 ft 191 kts 178°
2026-05-06 19:59 31.39645 121.72700 3442 ft 195 kts 168°
2026-05-06 20:00 31.38341 121.73155 3383 ft 195 kts 165°
2026-05-06 20:00 31.37051 121.73647 3331 ft 195 kts 165°
2026-05-06 20:00 31.35759 121.74142 3288 ft 193 kts 165°
2026-05-06 20:00 31.34524 121.74611 3227 ft 180 kts 166°
2026-05-06 20:01 31.33360 121.75048 3049 ft 173 kts 165°
2026-05-06 20:01 31.32220 121.75474 2898 ft 171 kts 165°
2026-05-06 20:01 31.31091 121.75899 2839 ft 169 kts 165°
2026-05-06 20:01 31.29970 121.76322 2780 ft 169 kts 165°
2026-05-06 20:02 31.28877 121.76740 2632 ft 165 kts 165°
2026-05-06 20:02 31.27802 121.77150 2405 ft 160 kts 165°
2026-05-06 20:02 31.26765 121.77543 2194 ft 154 kts 164°
2026-05-06 20:02 31.25769 121.77921 1979 ft 145 kts 165°
2026-05-06 20:03 31.24852 121.78269 1796 ft 133 kts 164°
2026-05-06 20:03 31.23989 121.78596 1651 ft 129 kts 165°
2026-05-06 20:03 31.23135 121.78919 1447 ft 129 kts 163°
2026-05-06 20:03 31.22285 121.79242 1294 ft 128 kts 163°
2026-05-06 20:04 31.21439 121.79563 1119 ft 127 kts 163°
2026-05-06 20:04 31.20598 121.79882 958 ft 127 kts 162°
2026-05-06 20:04 31.19764 121.80197 794 ft 127 kts 162°
2026-05-06 20:04 31.18929 121.80514 636 ft 125 kts 162°
2026-05-06 20:05 31.18093 121.80832 467 ft 126 kts 162°
2026-05-06 20:05 31.17257 121.81151 305 ft 127 kts 161°
2026-05-06 20:05 31.16404 121.81478 153 ft 130 kts 162°
2026-05-06 20:05 31.15545 121.81797 34 ft 128 kts 162°
2026-05-06 20:06 31.14836 121.82065 27 ft 84 kts 162°
2026-05-06 20:06 31.14432 121.82216 29 ft 38 kts 163°
2026-05-06 20:06 31.14317 121.82256 29 ft 8 kts 164°
2026-05-06 20:06 31.14170 121.82296 29 ft 45 kts 172°
2026-05-06 20:07 31.13958 121.82289 29 ft 0 kts 186°
2026-05-06 20:07 31.13899 121.82283 29 ft 22 kts 185°
2026-05-06 20:07 31.13762 121.82268 29 ft 0 kts 174°
2026-05-06 20:07 31.13757 121.82269 29 ft 2 kts 173°
2026-05-06 20:08 31.13718 121.82273 29 ft 6 kts 182°
2026-05-06 20:08 31.13714 121.82272 29 ft 0 kts 184°
2026-05-06 20:08 31.13713 121.82272 29 ft 1 kts 185°
2026-05-06 20:08 31.13684 121.82253 29 ft 7 kts 223°
2026-05-06 20:09 31.13656 121.82193 29 ft 10 kts 248°
2026-05-06 20:09 31.13629 121.82101 29 ft 14 kts 252°
2026-05-06 20:09 31.13602 121.82008 28 ft 2 kts 251°
2026-05-06 20:09 31.13591 121.81969 26 ft 8 kts 252°
2026-05-06 20:10 31.13570 121.81892 28 ft 11 kts 252°
2026-05-06 20:10 31.13546 121.81804 29 ft 11 kts 252°
2026-05-06 20:10 31.13519 121.81705 29 ft 14 kts 252°
2026-05-06 20:10 31.13490 121.81604 29 ft 9 kts 253°
2026-05-06 20:11 31.13512 121.81541 29 ft 10 kts 323°
2026-05-06 20:11 31.13585 121.81505 29 ft 13 kts 340°
2026-05-06 20:11 31.13661 121.81475 29 ft 10 kts 342°
2026-05-06 20:11 31.13727 121.81451 29 ft 1 kts 342°
2026-05-06 20:12 31.13748 121.81443 29 ft 5 kts 336°
2026-05-06 20:12 31.13754 121.81422 29 ft 2 kts 269°
2026-05-06 20:12 31.13745 121.81392 29 ft 6 kts 253°
2026-05-06 20:12 31.13737 121.81359 29 ft 0 kts 252°
2026-05-06 20:13 31.13735 121.81352 29 ft 2 kts 252°
2026-05-06 20:13 31.13732 121.81342 29 ft 0 kts 252°